Vorticity
nan nan nan nan nan nan nan nan nan nan nan nan nan nan nan nan nan nan nan nan nan nan nan nan nan nan nan
nan 9 8 10 9 10 13 9 6 4 15 20 15 20 15 13 28 29 17 9 10 11 9 10 8 6 nan
nan 10 9 8 10 14 11 9 5 5 7 15 11 11 15 17 30 37 17 5 7 9 10 9 10 10 nan
nan 9 9 11 10 10 13 11 7 8 7 6 4 2 5 9 15 25 24 16 10 9 9 7 8 11 nan
nan 10 9 9 11 13 11 10 9 11 7 7 8 4 3 6 6 30 31 12 13 9 7 7 9 11 nan
nan 7 8 9 10 12 13 10 8 9 9 7 9 10 8 6 10 17 27 30 14 10 7 7 9 12 nan
nan 9 6 8 8 9 12 11 10 10 10 7 7 9 8 10 24 21 11 25 19 8 11 10 11 12 nan
nan 6 6 5 10 11 10 12 10 8 11 9 7 8 9 1 19 33 15 15 20 19 18 19 16 15 nan
nan 7 7 7 9 9 10 11 10 9 12 11 9 6 5 6 7 23 24 18 26 27 23 19 15 4 nan
nan 15 12 10 9 12 11 9 10 9 10 10 10 7 7 6 9 10 16 17 15 18 22 13 1 -4 nan
nan 12 14 13 11 10 12 11 10 11 12 10 11 10 12 10 5 9 10 4 4 5 5 7 9 16 nan
nan 11 11 11 12 12 12 11 11 13 11 10 14 13 9 9 8 6 9 10 9 8 3 4 6 8 nan
nan 10 11 11 9 9 10 10 8 13 12 10 14 12 13 13 11 10 5 7 11 10 9 6 4 7 nan
nan 13 11 11 12 9 7 7 7 8 11 15 12 14 16 14 13 10 11 12 9 10 10 10 11 11 nan
nan 11 12 10 11 11 8 8 11 10 9 9 11 12 13 15 10 11 14 11 12 11 9 8 10 11 nan
nan 11 11 11 10 10 10 10 11 11 11 10 6 4 3 4 16 17 9 9 10 10 9 8 9 10 nan
nan nan nan nan nan nan nan nan nan nan nan nan nan nan nan nan nan nan nan nan nan nan nan nan nan nan nan
CAPE
27 13 4 16 0 2 7 2 2 5 2 4 0 19 25 0 11 38 38 44 83 135 129 134 182 169 116
20 27 18 5 1 2 4 3 2 6 4 3 3 0 2 1 1 0 8 7 44 69 118 115 121 153 139
25 16 14 14 3 0 0 1 1 4 3 6 6 5 2 0 1 0 0 0 1 8 46 37 49 75 92
12 14 12 8 9 11 5 1 0 0 2 3 4 3 3 2 1 1 0 0 4 0 5 7 6 35 59
15 12 11 8 15 13 3 0 0 1 0 0 1 0 1 1 0 1 0 0 0 0 1 0 0 5 36
23 10 10 8 13 10 2 0 0 0 0 0 0 1 1 1 1 0 1 0 0 0 0 0 0 0 4
61 10 10 11 14 5 4 1 0 0 0 0 0 0 1 1 0 0 0 1 0 0 0 0 0 0 0
9 21 21 22 26 5 5 0 0 0 0 0 0 0 0 1 2 0 0 0 1 0 0 0 0 0 0
13 9 0 3 5 2 0 0 0 0 0 0 0 0 0 0 0 0 1 1 0 0 0 0 0 1 2
16 9 3 0 2 24 1 1 0 0 0 0 0 0 0 0 0 0 0 1 2 3 4 2 0 0 0
6 21 9 3 6 11 3 0 2 0 0 0 0 0 0 0 0 0 0 0 0 6 16 9 4 0 0
16 15 16 13 4 0 2 3 0 0 0 0 0 0 0 0 0 0 0 0 0 0 0 7 11 8 3
2 3 14 18 16 1 0 0 0 0 0 0 0 0 0 1 0 0 0 0 0 0 0 0 0 0 0
2 4 14 20 16 8 1 0 0 0 0 0 0 0 0 0 0 0 0 0 0 0 0 0 0 0 0
11 1 5 4 16 7 0 1 1 1 1 0 0 0 0 0 0 0 0 0 0 0 0 0 0 0 0
0 10 6 3 2 5 1 2 1 2 1 0 0 0 0 0 4 0 0 0 0 0 0 0 0 0 0
2 2 1 1 6 0 0 1 1 2 2 1 0 0 0 0 1 3 0 0 0 0 0 0 0 2 0